[[{"header":{"parameterUnit":"m.s-1","parameterCategory":1,"la1":30.2991,"la2":30.254,"lo1":-89.0895,"lo2":-89.0444,"dy":0.0017,"dx":0.0017,"nx":28,"ny":28,"refTime":"2024-05-26T21:00:00:Z","depth":0,"parameterNumber":2,"parameterNumberName":"U-component_of_WINDS"},"data":[0,0,0,0,0,0,0,0,0,0,0,0,0,0,0,0,0,0,0,0,0,0,0,0,0,0,0,0,0,0,0,0,0,0,0,0,0,0,0,0,0,0,0,0,0,0,0,0,0,0,0,0,0,0,0,0,0,0,1.9123,1.9124,0,1.9295,1.9297,1.9299,1.9358,1.9357,1.9356,1.9356,1.9536,1.9541,1.9546,0,0,0,0,0,0,0,0,0,0,0,0,0,1.8846,1.8851,1.9122,1.9125,1.9127,1.9295,1.9297,1.93,1.9358,1.9357,1.9356,1.9355,1.9534,1.954,1.9547,0,0,0,0,0,0,0,0,0,0,0,0,0,1.8987,1.8853,1.9122,1.9176,1.9183,1.9295,1.9298,1.9301,1.9358,1.9357,1.9356,1.9355,1.9532,1.954,1.9548,1.962,0,0,1.9573,1.9576,0,0,0,0,0,0,0,0,1.8979,1.8997,1.9166,1.9172,1.918,1.9304,1.9266,1.9408,1.9358,1.9292,1.9356,1.9354,1.946,1.9474,1.9508,1.9628,1.9636,1.9573,1.9578,1.9582,1.9584,0,0,0,0,0,0,0,1.8969,1.899,1.9191,1.9168,1.9177,1.9193,1.9212,1.9293,1.938,1.9297,1.9302,1.9321,1.9463,1.95,1.9513,1.9638,1.9573,1.958,1.9585,1.9589,1.9827,1.9829,0,0,0,0,0,0,1.895,1.8982,1.9186,1.9196,1.9075,1.9199,1.922,1.9265,1.9379,1.9395,1.9322,1.9323,1.9487,1.9503,1.952,1.9612,1.9582,1.9589,1.9594,1.9826,1.9828,1.9829,0,0,0,0,0,0,1.8944,1.8968,1.9179,1.909,1.9118,1.9204,1.9255,1.9269,1.9306,1.9398,1.9414,1.9344,1.9487,1.9508,1.9594,1.9619,1.9593,1.9601,1.9824,1.9826,1.9828,1.9797,0,0,0,0,0,0,1.8936,1.8965,1.8992,1.909,1.9123,1.9249,1.9257,1.9273,1.932,1.9323,1.9422,1.9438,1.9488,1.9582,1.9603,1.963,1.9607,1.9822,1.9825,1.9828,1.9796,1.9798,1.9799,0,0,0,0,0,1.8926,1.8977,1.8993,1.9018,1.9159,1.925,1.9269,1.9324,1.9322,1.9351,1.9409,1.9435,1.9613,1.959,1.9614,1.9644,1.9821,1.9824,1.9827,1.9795,1.9797,1.9799,0,0,0,0,0,0,1.888,1.8991,1.901,1.9095,1.9163,1.926,1.9298,1.9325,1.9396,1.9396,1.9463,1.9485,1.9566,1.9614,1.9586,1.9721,1.9719,1.9727,1.9686,1.9689,1.969,1.9677,1.9614,0,0,0,0,0,1.888,1.8944,1.9038,1.9103,1.9136,1.9211,1.9253,1.929,1.9364,1.9393,1.9458,1.9529,1.9602,1.9648,1.9719,1.9803,1.9826,1.9836,1.9837,1.9838,1.9844,1.9893,1.9899,1.984,1.984,1.984,0,0,1.888,1.8948,1.8985,1.9096,1.9153,1.9219,1.9235,1.9304,1.9354,1.9404,1.9489,1.9539,1.9624,1.9709,1.975,1.9752,1.9866,1.9842,1.9842,1.9848,1.9897,1.9903,1.9908,1.9842,1.9841,1.9841,0,0,1.8914,1.8972,1.9033,1.909,1.9176,1.9226,1.924,1.9334,1.9369,1.9456,1.9495,1.9556,1.9679,1.9737,1.9783,1.9841,1.9867,1.9862,1.987,1.9917,1.9921,1.9926,1.9947,1.9954,1.9868,1.9868,1.9868,0,1.8903,1.9004,1.9061,1.9129,1.9177,1.9224,1.9288,1.934,1.9446,1.9478,1.9478,1.9634,1.9694,1.9794,1.9808,1.9844,1.9863,1.9851,1.9916,1.9921,1.9926,1.9947,1.9955,1.9867,1.9867,1.9867,1.9867,0,1.8987,1.9056,1.9095,1.9195,1.9248,1.9313,1.9381,1.9428,1.9461,1.9511,1.9599,1.9673,1.976,1.9787,1.982,1.9893,1.9891,1.9903,1.9902,1.993,1.995,1.9959,1.9865,1.9866,1.9866,1.9866,0,0,1.8996,1.9127,1.9141,1.9187,1.9286,1.9341,1.9409,1.9494,1.9533,1.9605,1.9664,1.9767,1.9779,1.9831,1.9871,1.9912,1.9954,1.9919,1.9922,1.9923,2.004,2.003,2.0038,1.9972,1.9974,1.9975,2.0033,0,1.9043,1.9165,1.9219,1.9317,1.9383,1.9429,1.9489,1.9556,1.9605,1.9669,1.9724,1.9796,1.9805,1.9837,1.988,1.9939,1.9978,1.9936,2.0029,2.0031,2.0006,2.0049,2.0039,2.009,2.0041,2.0042,2.0043,0,1.9114,1.9185,1.9289,1.9381,1.941,1.9462,1.9545,1.9605,1.9684,1.9717,1.9775,1.9813,1.9888,1.9882,1.9986,1.9956,1.9998,2.0033,2.0036,2.0047,2.0039,2.0061,2.0107,2.0114,2.0057,2.0056,2.0055,0,1.911,1.9232,1.931,1.9348,1.9458,1.9494,1.9541,1.9618,1.9666,1.9739,1.9772,1.9852,1.9897,1.9959,2.0019,2.0009,2.0117,2.0116,2.0147,2.0146,2.0168,2.0166,2.0221,2.0194,2.0194,2.0194,2.0194,0,1.9157,1.9218,1.931,1.9358,1.943,1.9493,1.9562,1.9613,1.9682,1.9741,1.9787,1.9843,1.9918,1.9984,2.0031,2.011,2.013,2.0159,2.0171,2.0155,2.0151,2.0183,2.0181,2.0196,2.0195,2.0195,2.0195,0,1.9164,1.9228,1.9317,1.9413,1.9439,1.9487,1.9571,1.962,1.9671,1.9747,1.9768,1.9849,1.9928,1.9994,2.0099,2.0131,2.0213,2.0227,2.0186,2.0193,2.022,2.0216,2.0297,2.0312,2.0275,2.0275,2.0275,0,1.9189,1.9238,1.934,1.9383,1.943,1.9499,1.9548,1.9612,1.9662,1.9756,1.9794,1.9876,1.9946,2.0071,2.014,2.022,2.0236,2.0259,2.0249,2.0231,2.0237,2.0233,2.0239,2.026,2.026,2.026,2.026,0,1.9228,1.9257,1.9326,1.9406,1.9464,1.953,1.9598,1.9631,1.9708,1.9762,1.9843,1.9897,2.0004,2.0085,2.0173,2.0224,2.0255,2.0263,2.0274,2.0258,2.0233,2.0247,2.0189,2.0261,2.0261,2.0261,2.0261,2.026,1.9245,1.9291,1.937,1.9446,1.9504,1.9566,1.9617,1.9675,1.9744,1.9835,1.987,1.9953,2.0032,2.0153,2.0204,2.0271,2.0275,2.0291,2.0296,2.0299,2.0297,2.0222,2.0287,2.0288,2.0288,2.0288,2.0288,0,1.9286,1.9339,1.9408,1.9502,1.9561,1.9586,1.9662,1.9711,1.9784,1.9854,1.9922,2.0016,2.0096,2.0171,2.0255,2.0294,2.0311,2.0314,2.0312,2.0323,2.0288,2.027,2.0299,2.0299,2.0299,2.0299,2.0299,2.0299,1.9314,1.9393,1.9432,1.9541,1.9595,1.9677,1.9718,1.9777,1.9834,1.9936,2.0003,2.0051,2.0125,2.0214,2.0289,2.0309,2.0338,2.0337,2.0361,2.0327,2.0325,2.0323,2.0307,2.0343,2.0343,2.0391,2.0391,2.0392]},{"header":{"parameterUnit":"m.s-1","parameterCategory":1,"la1":30.2991,"la2":30.254,"lo1":-89.0895,"lo2":-89.0444,"dy":0.0017,"dx":0.0017,"nx":28,"ny":28,"refTime":"2024-05-26T21:00:00:Z","depth":0,"parameterNumber":3,"parameterNumberName":"V-component_of_WINDS"},"data":[0,0,0,0,0,0,0,0,0,0,0,0,0,0,0,0,0,0,0,0,0,0,0,0,0,0,0,0,0,0,0,0,0,0,0,0,0,0,0,0,0,0,0,0,0,0,0,0,0,0,0,0,0,0,0,0,0,0,4.2943,4.2946,0,4.3161,4.3164,4.3166,4.3197,4.3195,4.3193,4.3191,4.3411,4.3418,4.3426,0,0,0,0,0,0,0,0,0,0,0,0,0,4.2551,4.2558,4.2943,4.2946,4.2949,4.3161,4.3164,4.3167,4.3197,4.3195,4.3192,4.319,4.3408,4.3417,4.3427,0,0,0,0,0,0,0,0,0,0,0,0,0,4.274,4.256,4.2943,4.2989,4.2996,4.316,4.3164,4.3168,4.3198,4.3195,4.3192,4.3189,4.3405,4.3416,4.3428,4.356,0,0,4.3463,4.3468,0,0,0,0,0,0,0,0,4.2729,4.2755,4.298,4.2986,4.2994,4.3149,4.3106,4.3299,4.3198,4.3121,4.3191,4.3187,4.3326,4.3344,4.3391,4.357,4.358,4.3464,4.3471,4.3476,4.348,0,0,0,0,0,0,0,4.2716,4.2745,4.3029,4.2983,4.2992,4.2999,4.3022,4.3143,4.3238,4.3127,4.313,4.3156,4.3329,4.338,4.3397,4.3583,4.3464,4.3474,4.3482,4.3486,4.3884,4.3888,0,0,0,0,0,0,4.2695,4.2734,4.3022,4.3036,4.2852,4.3008,4.3035,4.3102,4.3236,4.3254,4.3158,4.3156,4.3362,4.3383,4.3404,4.357,4.3476,4.3487,4.3494,4.3881,4.3885,4.3889,0,0,0,0,0,0,4.2686,4.272,4.3014,4.2886,4.2924,4.3018,4.3094,4.3108,4.3159,4.326,4.3276,4.3193,4.336,4.3388,4.3522,4.3578,4.3492,4.3503,4.3877,4.3882,4.3887,4.3902,0,0,0,0,0,0,4.2675,4.2717,4.2769,4.2887,4.2931,4.3128,4.3097,4.3114,4.3179,4.3179,4.3297,4.3313,4.336,4.3505,4.3534,4.3593,4.3512,4.3872,4.3879,4.3885,4.3897,4.3907,4.3916,0,0,0,0,0,4.2661,4.2763,4.2771,4.2806,4.2997,4.3131,4.3156,4.3209,4.3184,4.3236,4.3301,4.331,4.3567,4.3518,4.3551,4.3614,4.3869,4.3877,4.3885,4.3892,4.3905,4.3916,0,0,0,0,0,0,4.2647,4.2779,4.279,4.2933,4.3021,4.3136,4.3204,4.322,4.3316,4.3312,4.3372,4.3398,4.353,4.3585,4.3528,4.3751,4.3716,4.3731,4.371,4.3723,4.3732,4.3717,4.3522,0,0,0,0,0,4.2661,4.276,4.2869,4.2985,4.3029,4.3109,4.3169,4.3203,4.3295,4.3332,4.3407,4.3496,4.3598,4.3663,4.3761,4.3904,4.3931,4.3964,4.3974,4.3981,4.3994,4.4076,4.4093,4.3916,4.3916,4.3916,0,0,4.269,4.2774,4.2833,4.2985,4.3057,4.3158,4.314,4.3247,4.3322,4.3348,4.3481,4.3538,4.3642,4.3781,4.3847,4.3832,4.4049,4.3992,4.3997,4.4006,4.4086,4.4103,4.4117,4.3921,4.392,4.392,0,0,4.2795,4.2868,4.2974,4.3047,4.3157,4.321,4.3236,4.335,4.339,4.3523,4.3546,4.3636,4.3808,4.3882,4.3942,4.4077,4.4089,4.4107,4.4158,4.4237,4.4251,4.4264,4.4314,4.4331,4.4119,4.4119,4.4119,0,4.2817,4.2971,4.3026,4.3134,4.32,4.323,4.3338,4.3406,4.3542,4.3587,4.3568,4.3788,4.3859,4.4018,4.4051,4.4098,4.4129,4.4095,4.4245,4.4258,4.427,4.4319,4.4338,4.4121,4.4121,4.4121,4.4121,0,4.2994,4.31,4.3172,4.3306,4.338,4.3487,4.3558,4.3627,4.3654,4.3708,4.3845,4.3932,4.405,4.409,4.4116,4.4253,4.424,4.4232,4.4199,4.4288,4.4335,4.4354,4.4123,4.4123,4.4122,4.4122,0,0,4.3096,4.326,4.3286,4.3348,4.3472,4.3555,4.3663,4.378,4.3839,4.3932,4.4025,4.4171,4.4166,4.4234,4.4268,4.4338,4.4442,4.4322,4.4325,4.4343,4.4601,4.4607,4.4628,4.445,4.4454,4.4457,4.4593,0,4.3217,4.3414,4.3467,4.3633,4.3733,4.3763,4.3858,4.3944,4.3999,4.4091,4.415,4.4254,4.4237,4.4279,4.4349,4.4414,4.4495,4.4405,4.4538,4.4542,4.4513,4.4652,4.4659,4.4783,4.4611,4.4614,4.4616,0,4.3385,4.3484,4.366,4.3774,4.3818,4.3903,4.4016,4.4103,4.4202,4.4236,4.4314,4.4343,4.4457,4.4416,4.4575,4.4513,4.4571,4.4611,4.4617,4.4633,4.4586,4.4673,4.4824,4.4843,4.4645,4.4643,4.4641,0,4.3445,4.3621,4.3751,4.3802,4.3938,4.3997,4.4056,4.4152,4.4219,4.4317,4.4362,4.4471,4.4531,4.4615,4.4673,4.4637,4.4828,4.4791,4.486,4.4859,4.49,4.4897,4.5064,4.4934,4.4933,4.4933,4.4933,0,4.3575,4.3683,4.378,4.3859,4.3981,4.4041,4.4159,4.4219,4.4305,4.4397,4.4428,4.4513,4.4584,4.4678,4.4724,4.485,4.4876,4.4908,4.4919,4.4906,4.4903,4.4946,4.494,4.4938,4.4937,4.4936,4.4935,0,4.3663,4.3732,4.3876,4.3993,4.4025,4.411,4.421,4.4288,4.4344,4.446,4.449,4.4578,4.4691,4.4757,4.4899,4.493,4.507,4.5076,4.5038,4.5043,4.511,4.5103,4.5312,4.5343,4.519,4.5191,4.5192,0,4.3743,4.3827,4.3954,4.4019,4.4079,4.4182,4.4252,4.4315,4.4386,4.4506,4.4571,4.4686,4.4783,4.4962,4.5038,4.5147,4.5158,4.5223,4.5174,4.516,4.5161,4.5157,4.5166,4.5232,4.5233,4.5234,4.5235,0,4.3878,4.3909,4.4009,4.4123,4.4206,4.4298,4.4389,4.4439,4.4517,4.4596,4.4713,4.4788,4.4935,4.505,4.5166,4.5226,4.5244,4.525,4.5272,4.5261,4.5236,4.5253,4.5063,4.5245,4.5244,4.5243,4.5243,4.5242,4.3966,4.4043,4.4145,4.4257,4.4332,4.4417,4.4498,4.4565,4.4664,4.479,4.482,4.4944,4.5042,4.5201,4.5264,4.5361,4.535,4.5382,4.539,4.5398,4.5401,4.5219,4.5382,4.5382,4.5382,4.5382,4.5382,0,4.4105,4.4173,4.4275,4.4403,4.4491,4.4501,4.4603,4.4676,4.4785,4.4876,4.4971,4.5106,4.5219,4.5304,4.5419,4.548,4.5492,4.5509,4.5506,4.552,4.5403,4.5374,4.5498,4.5498,4.5498,4.5498,4.5498,4.5498,4.4187,4.4319,4.4362,4.4532,4.4599,4.4722,4.478,4.4859,4.4932,4.5083,4.5177,4.5232,4.5321,4.5443,4.5547,4.5569,4.5611,4.5627,4.565,4.554,4.5528,4.5516,4.5488,4.5635,4.5635,4.5759,4.576,4.5761]}]]